Holbrook, NY

10:59 AM EDT on August 28, 2016 (GMT -0400)
Long Island Mac Arthur

Weather History for KISP - January, 2014

Change the Weather History Date:

Saturday, January 11, 2014

  Actual Average Record
Temperature  
Mean Temperature 48 °F 30 °F  
Max Temperature 55 °F 38 °F 55 °F (2014)
Min Temperature 40 °F 23 °F 1 °F (1988)
Degree Days  
Heating Degree Days 17 34  
Month to date heating degree days 430 373  
Since 1 July heating degree days 2252 2300  
Cooling Degree Days 0 0  
Month to date cooling degree days 0 0  
Year to date cooling degree days 0 0  
Moisture  
Dew Point 49 °F    
Average Humidity 93    
Maximum Humidity 100    
Minimum Humidity 86    
Precipitation  
Precipitation 0.87 in 0.12 in 0.87 in (2014)
Month to date precipitation 2.43 1.32  
Year to date precipitation 2.43 1.32  
Snow  
Snow 0.00 in 0.20 in 3.60 in (1991)
Month to date snowfall 11.2 2.5  
Since 1 July snowfall 19.6 8.4  
Snow Depth 0.00 in    
Sea Level Pressure  
Sea Level Pressure 29.76 in    
Wind  
Wind Speed 14 mph (South)    
Max Wind Speed 25 mph    
Max Gust Speed 38 mph    
Visibility 3 miles    
Events Fog , Rain    
T = Trace of Precipitation, MM = Missing Value Source: NWS Daily Summary

Daily Weather History Graph

Daily Weather History Graph

Search for Another Location

Airport or City:

Trip Planner

Search our weather history database for the weather conditions in past years. The results will help you decide how hot, cold, wet, or windy it might be!

Date:

Astronomy

Jan. 11, 2014 Rise Set
Actual Time 7:15 AM EST 4:45 PM EST
Civil Twilight 6:45 AM EST 5:15 PM EST
Nautical Twilight 6:11 AM EST 5:49 PM EST
Astronomical Twilight 5:38 AM EST 6:22 PM EST
Moon 1:27 PM EST (1/11) 3:17 AM EST (1/11)
Length of Visible Light 10h 30m
Length of Day
9h 29m
Waxing Gibbous, 83% of the Moon is Illuminated
Jan 11
Waxing Gibbous
Jan 15
Full
Jan 24
Last Quarter
Jan 30
New
Feb 6
First Quarter

Hourly Weather History & Observations

Time (EST) Temp. Windchill Dew Point Humidity Pressure Visibility Wind Dir Wind Speed Gust Speed Precip Events Conditions
12:56 AM 43.0 °F 39.5 °F 41.0 °F 93% 30.19 in 0.2 mi SSE 5.8 mph - 0.01 in Fog , Rain Light Rain
1:04 AM 42.8 °F 39.3 °F 42.8 °F 100% 30.18 in 0.5 mi SSE 5.8 mph - 0.00 in Fog Fog
1:40 AM 44.6 °F 41.4 °F 42.8 °F 93% 30.17 in 1.5 mi SSE 5.8 mph - 0.00 in   Overcast
1:54 AM 44.6 °F 42.2 °F 42.8 °F 93% 30.17 in 0.5 mi SSE 4.6 mph - 0.00 in Fog Fog
1:56 AM 45.0 °F 41.8 °F 44.1 °F 97% 30.17 in 0.5 mi SSE 5.8 mph - 0.00 in Fog , Rain Light Rain
2:09 AM 46.4 °F 42.9 °F 44.6 °F 93% 30.15 in 2.0 mi SSE 6.9 mph - 0.02 in Rain Light Rain
2:11 AM 46.4 °F 42.9 °F 44.6 °F 93% 30.16 in 3.0 mi South 6.9 mph - 0.02 in Rain Light Rain
2:19 AM 46.4 °F 42.4 °F 44.6 °F 93% 30.15 in 7.0 mi SSE 8.1 mph - 0.02 in   Overcast
2:56 AM 48.0 °F - 46.0 °F 93% 30.13 in 9.0 mi SSE 11.5 mph - 0.03 in Rain Light Rain
3:56 AM 51.1 °F - 48.0 °F 89% 30.09 in 10.0 mi SSE 12.7 mph - 0.01 in   Overcast
4:56 AM 50.0 °F - 46.9 °F 89% 30.05 in 10.0 mi SSE 11.5 mph 21.9 mph 0.01 in   Overcast
5:56 AM 52.0 °F - 48.9 °F 89% 30.00 in 10.0 mi SSE 16.1 mph 25.3 mph 0.01 in   Light Drizzle
6:10 AM 51.8 °F - 48.2 °F 88% 29.99 in 10.0 mi SSE 15.0 mph - 0.00 in   Overcast
6:56 AM 52.0 °F - 48.9 °F 89% 29.96 in 10.0 mi SSE 17.3 mph 25.3 mph 0.01 in   Overcast
7:10 AM 51.8 °F - 48.2 °F 88% 29.95 in 10.0 mi SSE 15.0 mph 23.0 mph N/A   Overcast
7:39 AM 53.6 °F - 50.0 °F 88% 29.94 in 10.0 mi SSE 12.7 mph 20.7 mph N/A   Overcast
7:56 AM 52.0 °F - 50.0 °F 93% 29.94 in 8.0 mi SSE 12.7 mph - 0.01 in   Overcast
8:20 AM 51.8 °F - 50.0 °F 94% 29.92 in 2.0 mi South 12.7 mph - N/A   Overcast
8:56 AM 53.1 °F - 51.1 °F 93% 29.91 in 2.0 mi South 15.0 mph 21.9 mph 0.01 in   Overcast
9:56 AM 53.1 °F - 51.1 °F 93% 29.88 in 1.0 mi South 13.8 mph 20.7 mph 0.01 in   Overcast
10:14 AM 53.6 °F - 51.8 °F 94% 29.86 in 0.5 mi South 15.0 mph 23.0 mph N/A Fog Fog
10:52 AM 53.6 °F - 51.8 °F 94% 29.83 in 0.2 mi South 16.1 mph 23.0 mph 0.01 in Fog , Rain Light Rain
10:56 AM 53.1 °F - 51.1 °F 93% 29.83 in 0.2 mi South 12.7 mph 24.2 mph 0.01 in Fog , Rain Light Rain
11:56 AM 53.1 °F - 52.0 °F 96% 29.74 in 0.1 mi South 17.3 mph 25.3 mph 0.03 in Fog Fog
12:42 PM 53.6 °F - 51.8 °F 94% 29.66 in 0.1 mi South 20.7 mph 28.8 mph 0.01 in Fog Fog
12:56 PM 54.0 °F - 53.1 °F 97% 29.65 in 0.2 mi South 21.9 mph 32.2 mph 0.01 in Fog Fog
1:56 PM 54.0 °F - 53.1 °F 97% 29.57 in 0.1 mi South 16.1 mph 27.6 mph 0.02 in Fog Fog
2:56 PM 55.0 °F - 53.1 °F 93% 29.54 in 0.1 mi South 23.0 mph 32.2 mph 0.22 in Fog Fog
3:47 PM 53.6 °F - 51.8 °F 94% 29.52 in 0.1 mi SSW 21.9 mph 34.5 mph 0.02 in Fog , Rain Light Rain
3:56 PM 53.1 °F - 52.0 °F 96% 29.51 in 0.1 mi SSW 18.4 mph 34.5 mph 0.02 in Fog , Rain Light Rain
4:18 PM 53.6 °F - 51.8 °F 94% 29.50 in 0.1 mi South 16.1 mph 29.9 mph 0.02 in Fog , Rain Light Rain
4:45 PM 51.8 °F - 51.8 °F 100% 29.47 in 0.1 mi SSW 19.6 mph 31.1 mph 0.03 in Fog Fog
4:56 PM 52.0 °F - 51.1 °F 97% 29.47 in 0.1 mi SSW 17.3 mph 26.5 mph 0.03 in Fog , Rain Light Rain
5:25 PM 53.6 °F - 51.8 °F 94% 29.44 in 0.1 mi SSW 17.3 mph 26.5 mph 0.02 in Fog Fog
5:34 PM 51.8 °F - 51.8 °F 100% 29.43 in 0.1 mi South 18.4 mph 27.6 mph 0.04 in Fog , Rain Rain
5:56 PM 53.1 °F - 52.0 °F 96% 29.46 in 0.8 mi West 23.0 mph 32.2 mph 0.10 in Rain Rain
6:07 PM 53.6 °F - 51.8 °F 94% 29.46 in 2.0 mi WSW 24.2 mph 31.1 mph 0.13 in Rain Heavy Rain
6:13 PM 53.6 °F - 51.8 °F 94% 29.47 in 5.0 mi SW 20.7 mph 34.5 mph 0.17 in Rain Rain
6:56 PM 52.0 °F - 51.1 °F 97% 29.45 in 8.0 mi SSW 8.1 mph - 0.20 in Rain Rain
7:56 PM 50.0 °F - 48.9 °F 96% 29.43 in 0.8 mi South 3.5 mph - 0.01 in Rain Light Rain
8:56 PM 48.0 °F - 46.9 °F 96% 29.38 in 0.1 mi SSE 8.1 mph - 0.01 in Fog Fog
9:35 PM 50.0 °F - 48.2 °F 94% 29.36 in 0.8 mi SSE 11.5 mph - N/A   Overcast
9:56 PM 50.0 °F - 48.0 °F 93% 29.38 in 5.0 mi South 10.4 mph - N/A   Mostly Cloudy
10:15 PM 48.2 °F - 46.4 °F 93% 29.42 in 1.0 mi SW 12.7 mph - N/A   Overcast
10:56 PM 50.0 °F - 48.9 °F 96% 29.41 in 1.0 mi SSW 17.3 mph 27.6 mph 0.01 in   Overcast
11:56 PM 48.9 °F - 46.9 °F 93% 29.40 in 3.0 mi SW 16.1 mph 24.2 mph 0.09 in Rain Light Rain